Powrót do katalogu

SL-16 DEB

AktywnyLEO
NORAD 22392·DEBRIS·🇷🇺 Russia

Wystrzelony Dec 25, 1992 z Baikonur Cosmodrome

Loading…

Następne Przeloty (najbliższe 24 godziny)

TLE

ŚwieżeSource: Space-Track

Epoka: Sep 14, 2026, 07:27 UTC

1 22392U 92093CH  26257.31071968  .00002332  00000-0  23674-3 0  9993
2 22392  70.8834 226.3627 0074021 191.9167 238.3451 14.90110053777063

Śledź SL-16 DEB w czasie rzeczywistym z AllMySat

Download on the App Store